datetime,pool elevation
2020-12-26,4525.47
2020-12-27,
2020-12-28,
2020-12-29,
2020-12-30,
2020-12-31,
2021-01-01,
2021-01-02,
2021-01-03,
2021-01-04,
2021-01-05,
2021-01-06,
2021-01-07,
2021-01-08,
2021-01-09,
2021-01-10,
2021-01-11,
2021-01-12,
2021-01-13,
2021-01-14,
2021-01-15,
2021-01-16,
2021-01-17,
2021-01-18,
2021-01-19,
2021-01-20,
2021-01-21,
2021-01-22,
2021-01-23,
2021-01-24,
2021-01-25,
2021-01-26,
2021-01-27,
2021-01-28,
2021-01-29,
2021-01-30,
2021-01-31,
2021-02-01,
2021-02-02,
2021-02-03,
2021-02-04,
2021-02-05,
2021-02-06,
2021-02-07,
2021-02-08,
2021-02-09,
2021-02-10,
2021-02-11,
2021-02-12,
2021-02-13,
2021-02-14,
2021-02-15,
2021-02-16,
2021-02-17,
2021-02-18,
2021-02-19,
2021-02-20,
2021-02-21,
2021-02-22,
2021-02-23,
2021-02-24,
2021-02-25,
2021-02-26,
2021-02-27,
2021-02-28,
2021-03-01,
2021-03-02,
2021-03-03,
2021-03-04,
2021-03-05,
2021-03-06,
2021-03-07,
2021-03-08,
2021-03-09,
2021-03-10,
2021-03-11,
2021-03-12,
2021-03-13,
2021-03-14,
2021-03-15,
2021-03-16,
2021-03-17,
2021-03-18,
2021-03-19,
2021-03-20,
2021-03-21,
2021-03-22,4525.57
2021-03-23,4525.59
2021-03-24,4525.52
2021-03-25,4525.58
2021-03-26,4525.57
2021-03-27,4525.58
2021-03-28,4525.52
2021-03-29,4525.59
2021-03-30,4525.55
2021-03-31,4525.56
2021-04-01,4525.56
2021-04-02,4525.53
2021-04-03,4525.55
2021-04-04,4525.52
2021-04-05,4525.55
2021-04-06,4525.54
2021-04-07,4525.49
2021-04-08,4525.54
2021-04-09,4525.5
2021-04-10,4525.52
2021-04-11,4525.5
2021-04-12,4525.49
2021-04-13,4525.44
2021-04-14,4525.45
2021-04-15,4525.46
2021-04-16,4525.47
2021-04-17,4525.44
2021-04-18,4525.42
2021-04-19,4525.41
2021-04-20,4525.35
2021-04-21,4525.37
2021-04-22,4525.31
2021-04-23,4525.28
2021-04-24,4525.29
2021-04-25,4525.37
2021-04-26,4525.35
2021-04-27,4525.35
2021-04-28,4525.33
2021-04-29,4525.31
2021-04-30,4525.26
2021-05-01,4525.2
2021-05-02,4525.21
2021-05-03,4525.19
2021-05-04,4525.2
2021-05-05,4525.18
2021-05-06,4525.11
2021-05-07,4525.06
2021-05-08,4525.05
2021-05-09,4525.04
2021-05-10,4525.0
2021-05-11,4525.0
2021-05-12,4524.96
2021-05-13,4524.94
2021-05-14,4524.92
2021-05-15,4524.89
2021-05-16,4524.85
2021-05-17,4524.77
2021-05-18,4524.76
2021-05-19,4524.74
2021-05-20,4524.7
2021-05-21,4524.64
2021-05-22,4524.65
2021-05-23,4524.62
2021-05-24,4524.64
2021-05-25,4524.61
2021-05-26,4524.53
2021-05-27,4524.54
2021-05-28,4524.51
2021-05-29,4524.47
2021-05-30,4524.45
2021-05-31,4524.45
2021-06-01,4524.39
2021-06-02,4524.34
2021-06-03,4524.34
2021-06-04,4524.3
2021-06-05,4524.24
2021-06-06,4524.22
2021-06-07,4524.12
2021-06-08,4524.07
2021-06-09,4524.08
2021-06-10,4524.04
2021-06-11,4524.05
2021-06-12,4524.05
2021-06-13,4523.98
2021-06-14,4523.96
2021-06-15,4523.94
2021-06-16,4523.91
2021-06-17,4523.87
2021-06-18,4523.83
2021-06-19,4523.81
2021-06-20,4523.78
2021-06-21,4523.75
2021-06-22,4523.75
2021-06-23,4523.68
2021-06-24,4523.65
2021-06-25,4523.6
2021-06-26,4523.59
2021-06-27,4523.59
2021-06-28,4523.53
2021-06-29,4523.43
2021-06-30,4523.36
2021-07-01,4523.37
2021-07-02,4523.32
2021-07-03,4523.27
2021-07-04,4523.26
2021-07-05,4523.19
2021-07-06,4523.12
2021-07-07,4523.11
2021-07-08,4523.1
2021-07-09,4523.04
2021-07-10,4522.98
2021-07-11,4522.95
2021-07-12,4522.9
2021-07-13,4522.87
2021-07-14,4522.84
2021-07-15,4522.77
2021-07-16,4522.76
2021-07-17,4522.72
2021-07-18,4522.7
2021-07-19,4522.64
2021-07-20,4522.6
2021-07-21,
2021-07-22,4522.53
2021-07-23,4522.56
2021-07-24,4522.51
2021-07-25,4522.47
2021-07-26,4522.43
2021-07-27,4522.47
2021-07-28,4522.46
2021-07-29,4522.46
2021-07-30,4522.42
2021-07-31,4522.4
2021-08-01,4522.38
2021-08-02,4522.35
2021-08-03,4522.32
2021-08-04,4522.29
2021-08-05,4522.19
2021-08-06,4522.25
2021-08-07,4522.23
2021-08-08,4522.2
2021-08-09,4522.2
2021-08-10,4522.18
2021-08-11,4522.15
2021-08-12,4522.1
2021-08-13,4522.11
2021-08-14,4522.13
2021-08-15,4522.09
2021-08-16,4522.05
2021-08-17,4521.99
2021-08-18,4522.03
2021-08-19,4521.98
2021-08-20,4521.92
2021-08-21,4521.95
2021-08-22,4521.95
2021-08-23,4521.93
2021-08-24,4521.91
2021-08-25,4521.9
2021-08-26,4521.88
2021-08-27,4521.88
2021-08-28,4521.88
2021-08-29,4521.87
2021-08-30,4521.84
2021-08-31,4521.8
2021-09-01,4521.76
2021-09-02,4521.8
2021-09-03,4521.78
2021-09-04,4521.77
2021-09-05,4521.77
2021-09-06,4521.76
2021-09-07,4521.69
2021-09-08,4521.72
2021-09-09,4521.69
2021-09-10,4521.77
2021-09-11,4521.76
2021-09-12,4521.72
2021-09-13,4521.73
2021-09-14,4521.7
2021-09-15,4521.66
2021-09-16,4521.69
2021-09-17,4521.61
2021-09-18,4521.63
2021-09-19,4521.62
2021-09-20,4521.65
2021-09-21,4521.64
2021-09-22,4521.61
2021-09-23,4521.63
2021-09-24,4521.62
2021-09-25,4521.59
2021-09-26,4521.54
2021-09-27,4521.48
2021-09-28,4521.56
2021-09-29,4521.56
2021-09-30,4521.56
2021-10-01,4521.56
2021-10-02,4521.57
2021-10-03,4521.56
2021-10-04,4521.51
2021-10-05,4521.5
2021-10-06,4521.52
2021-10-07,4521.51
2021-10-08,4521.48
2021-10-09,4521.43
2021-10-10,4521.41
2021-10-11,4521.41
2021-10-12,4521.42
2021-10-13,4521.38
2021-10-14,4521.42
2021-10-15,4521.44
2021-10-16,4521.41
2021-10-17,4521.38
2021-10-18,4521.35
2021-10-19,4521.38
2021-10-20,4521.38
2021-10-21,4521.44
2021-10-22,4521.46
2021-10-23,4521.5
2021-10-24,4521.51
2021-10-25,4521.55
2021-10-26,4521.46
2021-10-27,4521.56
2021-10-28,4521.58
2021-10-29,4521.59
2021-10-30,4521.59
2021-10-31,4521.55
2021-11-01,4521.61
2021-11-02,4521.59
2021-11-03,4521.63
2021-11-04,4521.55
2021-11-05,4521.55
2021-11-06,4521.56
2021-11-07,4521.6
2021-11-08,4521.6
2021-11-09,4521.55
2021-11-10,4521.56
2021-11-11,4521.6
2021-11-12,4521.61
2021-11-13,4521.61
2021-11-14,4521.61
2021-11-15,4521.54
2021-11-16,4521.59
2021-11-17,4521.6
2021-11-18,4521.45
2021-11-19,4521.58
2021-11-20,4521.58
2021-11-21,4521.59
2021-11-22,4521.58
2021-11-23,4521.56
2021-11-24,4521.58
2021-11-25,4521.58
2021-11-26,4521.58
2021-11-27,4521.58
2021-11-28,4521.57
2021-11-29,4521.6
2021-11-30,4521.58
2021-12-01,4521.58
2021-12-02,4521.58
2021-12-03,4521.56
2021-12-04,4521.57
2021-12-05,4521.58
2021-12-06,4521.58
2021-12-07,4521.58
2021-12-08,4521.54
2021-12-09,4521.51
2021-12-10,4521.53
2021-12-11,4521.35
2021-12-12,4521.52
2021-12-13,
2021-12-14,
2021-12-15,4521.58
2021-12-16,4521.62
2021-12-17,4521.63
2021-12-18,4521.65
2021-12-19,4521.62
2021-12-20,4521.63
2021-12-21,4521.61
2021-12-22,4521.64
2021-12-23,4521.62
2021-12-24,4521.65
2021-12-25,4521.66
2021-12-26,4521.66
2021-12-27,4521.69
2021-12-28,4521.7
2021-12-29,4521.72
2021-12-30,4521.69
2021-12-31,4521.72
2022-01-01,4521.7
2022-01-02,4521.7
2022-01-03,4521.71
2022-01-04,4521.72
2022-01-05,4521.71
2022-01-06,4521.58
2022-01-07,4521.79
2022-01-08,4521.86
2022-01-09,4521.93
2022-01-10,4521.99
2022-01-11,4521.98
2022-01-12,4522.02
2022-01-13,4522.0
2022-01-14,4522.03
2022-01-15,4522.03
2022-01-16,4522.05
2022-01-17,4522.05
2022-01-18,4522.05
2022-01-19,4522.06
2022-01-20,4522.05
2022-01-21,4522.08
2022-01-22,4522.06
2022-01-23,4522.07
2022-01-24,4522.09
2022-01-25,4522.11
2022-01-26,4522.11
2022-01-27,4522.11
2022-01-28,4522.11
2022-01-29,4522.1
2022-01-30,4522.1
2022-01-31,4522.06
2022-02-01,4522.09
2022-02-02,4522.1
2022-02-03,4522.11
2022-02-04,4522.12
2022-02-05,4522.1
2022-02-06,4522.11
2022-02-07,4522.11
2022-02-08,4522.12
2022-02-09,4522.11
2022-02-10,4522.12
2022-02-11,4522.11
2022-02-12,4522.12
2022-02-13,4522.13
2022-02-14,4522.05
2022-02-15,4522.06
2022-02-16,4522.1
2022-02-17,4522.1
2022-02-18,4522.1
2022-02-19,4522.07
2022-02-20,4522.04
2022-02-21,4522.02
2022-02-22,4522.06
2022-02-23,4522.07
2022-02-24,4522.08
2022-02-25,4522.1
2022-02-26,4521.97
2022-02-27,4522.04
2022-02-28,4522.06
2022-03-01,4522.07
2022-03-02,4522.07
2022-03-03,4522.07
2022-03-04,4522.01
2022-03-05,4522.08
2022-03-06,4522.08
2022-03-07,4522.05
2022-03-08,4521.97
2022-03-09,4521.99
2022-03-10,4522.08
2022-03-11,4522.06
2022-03-12,4521.84
2022-03-13,4522.03
2022-03-14,4522.0
2022-03-15,4522.01
2022-03-16,4522.08
2022-03-17,4522.08
2022-03-18,4522.07
2022-03-19,4522.02
2022-03-20,4522.11
2022-03-21,4522.11
2022-03-22,4522.16
2022-03-23,4522.14
2022-03-24,4522.13
2022-03-25,4522.11
2022-03-26,4522.12
2022-03-27,4522.12
2022-03-28,4522.08
2022-03-29,4522.1
2022-03-30,4522.04
2022-03-31,4522.1
2022-04-01,4522.08
2022-04-02,4522.09
2022-04-03,4522.05
2022-04-04,4521.99
2022-04-05,4522.07
2022-04-06,4522.07
2022-04-07,4522.08
2022-04-08,4521.96
2022-04-09,4521.99
2022-04-10,4521.99
2022-04-11,4521.87
2022-04-12,4521.9
2022-04-13,4521.96
2022-04-14,4522.0
2022-04-15,4522.02
2022-04-16,4522.04
2022-04-17,4522.03
2022-04-18,
2022-04-19,4522.07
2022-04-20,4522.02
2022-04-21,4522.18
2022-04-22,4522.26
2022-04-23,4522.33
2022-04-24,4522.36
2022-04-25,4522.33
2022-04-26,4522.36
2022-04-27,4522.39
2022-04-28,4522.39
2022-04-29,4522.44
2022-04-30,4522.37
2022-05-01,4522.43
2022-05-02,4522.31
2022-05-03,4522.44
2022-05-04,4522.39
2022-05-05,4522.3
2022-05-06,4522.2
2022-05-07,4522.32
2022-05-08,4522.33
2022-05-09,4522.37
2022-05-10,4522.41
2022-05-11,4522.35
2022-05-12,4522.29
2022-05-13,4522.33
2022-05-14,4522.38
2022-05-15,4522.32
2022-05-16,4522.33
2022-05-17,4522.31
2022-05-18,4522.25
2022-05-19,4522.22
2022-05-20,4522.29
2022-05-21,4522.24
2022-05-22,4522.23
2022-05-23,4522.18
2022-05-24,4522.21
2022-05-25,4522.19
2022-05-26,4522.15
2022-05-27,4522.17
2022-05-28,4522.05
2022-05-29,4522.04
2022-05-30,4522.11
2022-05-31,4522.12
2022-06-01,4522.08
2022-06-02,4522.05
2022-06-03,4522.02
2022-06-04,4521.97
2022-06-05,4521.99
2022-06-06,4522.01
2022-06-07,4522.01
2022-06-08,4522.01
2022-06-09,4522.0
2022-06-10,4521.97
2022-06-11,4521.95
2022-06-12,4521.93
2022-06-13,4521.93
2022-06-14,4521.94
2022-06-15,4521.91
2022-06-16,4521.88
2022-06-17,4521.81
2022-06-18,4521.83
2022-06-19,4521.81
2022-06-20,4521.84
2022-06-21,4521.83
2022-06-22,4521.75
2022-06-23,4521.74
2022-06-24,4521.8
2022-06-25,4521.78
2022-06-26,4521.71
2022-06-27,4521.69
2022-06-28,4521.64
2022-06-29,4521.65
2022-06-30,4521.58
2022-07-01,4521.54
2022-07-02,4521.53
2022-07-03,4521.5
2022-07-04,4521.51
2022-07-05,4521.5
2022-07-06,4521.48
2022-07-07,4521.42
2022-07-08,4521.43
2022-07-09,4521.4
2022-07-10,4521.4
2022-07-11,4521.41
2022-07-12,4521.33
2022-07-13,4521.31
2022-07-14,4521.27
2022-07-15,4521.24
2022-07-16,4521.24
2022-07-17,4521.19
2022-07-18,4521.19
2022-07-19,4521.14
2022-07-20,4521.11
2022-07-21,4521.09
2022-07-22,4521.06
2022-07-23,4521.06
2022-07-24,4521.05
2022-07-25,4521.01
2022-07-26,4521.0
2022-07-27,4520.98
2022-07-28,4520.97
2022-07-29,4520.95
2022-07-30,4520.91
2022-07-31,4520.9
2022-08-01,4520.88
2022-08-02,4520.86
2022-08-03,4520.83
2022-08-04,4520.8
2022-08-05,4520.81
2022-08-06,4520.82
2022-08-07,4520.8
2022-08-08,4520.78
2022-08-09,4520.74
2022-08-10,4520.7
2022-08-11,4520.67
2022-08-12,4520.62
2022-08-13,4520.58
2022-08-14,4520.58
2022-08-15,4520.57
2022-08-16,4520.58
2022-08-17,4520.54
2022-08-18,4520.54
2022-08-19,4520.5
2022-08-20,4520.5
2022-08-21,4520.45
2022-08-22,4520.46
2022-08-23,4520.44
2022-08-24,4520.42
2022-08-25,4520.39
2022-08-26,4520.42
2022-08-27,4520.39
2022-08-28,4520.37
2022-08-29,4520.27
2022-08-30,4520.34
2022-08-31,4520.32
2022-09-01,4520.29
2022-09-02,4520.29
2022-09-03,4520.27
2022-09-04,4520.25
2022-09-05,4520.25
2022-09-06,4520.23
2022-09-07,4520.2
2022-09-08,4520.2
2022-09-09,4520.18
2022-09-10,4520.16
2022-09-11,4520.16
2022-09-12,4520.12
2022-09-13,4520.1
2022-09-14,4520.1
2022-09-15,4520.02
2022-09-16,4520.04
2022-09-17,4520.02
2022-09-18,4520.05
2022-09-19,4520.03
2022-09-20,4520.04
2022-09-21,4520.02
2022-09-22,4520.02
2022-09-23,4520.01
2022-09-24,4520.01
2022-09-25,4520.01
2022-09-26,4520.01
2022-09-27,4520.02
2022-09-28,4519.89
2022-09-29,4519.97
2022-09-30,4519.95
2022-10-01,4519.94
2022-10-02,4519.95
2022-10-03,4519.94
2022-10-04,4519.93
2022-10-05,4519.92
2022-10-06,4519.93
2022-10-07,4519.9
2022-10-08,4519.91
2022-10-09,4519.9
2022-10-10,4519.85
2022-10-11,4519.88
2022-10-12,4519.88
2022-10-13,4519.85
2022-10-14,4519.86
2022-10-15,4519.82
2022-10-16,4519.84
2022-10-17,4519.86
2022-10-18,4519.87
2022-10-19,4519.87
2022-10-20,4519.88
2022-10-21,4519.82
2022-10-22,4519.77
2022-10-23,4519.86
2022-10-24,4519.77
2022-10-25,4519.8
2022-10-26,4519.84
2022-10-27,4519.85
2022-10-28,4519.82
2022-10-29,4519.85
2022-10-30,4519.8
2022-10-31,4519.8
2022-11-01,4519.8
2022-11-02,4519.83
2022-11-03,4519.84
2022-11-04,4519.69
2022-11-05,4519.82
2022-11-06,4519.77
2022-11-07,4519.88
2022-11-08,4519.86
2022-11-09,4519.9
2022-11-10,4519.9
2022-11-11,4519.89
2022-11-12,4519.87
2022-11-13,4519.89
2022-11-14,4519.86
2022-11-15,4519.88
2022-11-16,4519.87
2022-11-17,4519.86
2022-11-18,4519.87
2022-11-19,4519.87
2022-11-20,4519.88
2022-11-21,4519.86
2022-11-22,4519.89
2022-11-23,4519.89
2022-11-24,4519.86
2022-11-25,4519.86
2022-11-26,4519.86
2022-11-27,4519.86
2022-11-28,4519.81
2022-11-29,4519.84
2022-11-30,4519.79
2022-12-01,4519.81
2022-12-02,4519.86
2022-12-03,4519.89
2022-12-04,4519.93
2022-12-05,4519.89
2022-12-06,4519.92
2022-12-07,4519.92
2022-12-08,4519.88
2022-12-09,4519.9
2022-12-10,
2022-12-11,4519.89
2022-12-12,4519.97
2022-12-13,4519.97
2022-12-14,4519.99
2022-12-15,4519.96
2022-12-16,4519.96
2022-12-17,4519.96
2022-12-18,4519.94
2022-12-19,4519.95
2022-12-20,4519.96
2022-12-21,4520.0
2022-12-22,4520.0
2022-12-23,4519.95
2022-12-24,4519.99
2022-12-25,4519.94
2022-12-26,4519.92
2022-12-27,4519.99
2022-12-28,4519.99
2022-12-29,4519.91
2022-12-30,4520.05
2022-12-31,4520.07
2023-01-01,4520.14
2023-01-02,4520.12
2023-01-03,4520.15
2023-01-04,4520.12
2023-01-05,4520.22
2023-01-06,4520.31
2023-01-07,4520.36
2023-01-08,4520.44
2023-01-09,4520.57
2023-01-10,4520.63
2023-01-11,4520.79
2023-01-12,4520.9
2023-01-13,4520.94
2023-01-14,4521.02
2023-01-15,4521.14
2023-01-16,4521.21
2023-01-17,4521.28
2023-01-18,4521.34
2023-01-19,4521.37
2023-01-20,4521.42
2023-01-21,4521.46
2023-01-22,4521.49
2023-01-23,4521.52
2023-01-24,4521.55
2023-01-25,4521.58
2023-01-26,4521.61
2023-01-27,4521.61
2023-01-28,4521.63
2023-01-29,4521.65
2023-01-30,4521.65
2023-01-31,4521.67
2023-02-01,4521.67
2023-02-02,4521.69
2023-02-03,4521.7
2023-02-04,4521.69
2023-02-05,4521.72
2023-02-06,4521.76
2023-02-07,4521.78
2023-02-08,4521.81
2023-02-09,4521.81
2023-02-10,4521.77
2023-02-11,4521.81
2023-02-12,4521.82
2023-02-13,4521.67
2023-02-14,4521.8
2023-02-15,4521.83
2023-02-16,4521.83
2023-02-17,4521.85
2023-02-18,4521.85
2023-02-19,4521.87
2023-02-20,4521.86
2023-02-21,4521.76
2023-02-22,4521.81
2023-02-23,4521.86
2023-02-24,4521.87
2023-02-25,4521.87
2023-02-26,4521.88
2023-02-27,4521.85
2023-02-28,4521.88
2023-03-01,4521.9
2023-03-02,4521.92
2023-03-03,4521.92
2023-03-04,4521.91
2023-03-05,4521.92
2023-03-06,4521.93
2023-03-07,4521.95
2023-03-08,4521.97
2023-03-09,4521.98
2023-03-10,4522.0
2023-03-11,4522.0
2023-03-12,4521.98
2023-03-13,4521.99
2023-03-14,4522.12
2023-03-15,4522.4
2023-03-16,4522.69
2023-03-17,4522.89
2023-03-18,4522.98
2023-03-19,4523.02
2023-03-20,4523.16
2023-03-21,4523.24
2023-03-22,
2023-03-23,4523.41
2023-03-24,4523.51
2023-03-25,4523.57
2023-03-26,4523.74
2023-03-27,4523.77
2023-03-28,4523.85
2023-03-29,4523.91
2023-03-30,4523.97
2023-03-31,4523.92
2023-04-01,4524.03
2023-04-02,4524.06
2023-04-03,4524.09
2023-04-04,4524.17
2023-04-05,4524.22
2023-04-06,4524.25
2023-04-07,4524.26
2023-04-08,4524.34
2023-04-09,4524.41
2023-04-10,4524.44
2023-04-11,4524.63
2023-04-12,4524.78
2023-04-13,4524.92
2023-04-14,4525.03
2023-04-15,4525.1
2023-04-16,4525.22
2023-04-17,4525.36
2023-04-18,4525.46
2023-04-19,4525.58
2023-04-20,4525.64
2023-04-21,4525.7
2023-04-22,4525.78
2023-04-23,4525.8
2023-04-24,4525.91
2023-04-25,4525.98
2023-04-26,4526.05
2023-04-27,4526.1
2023-04-28,4526.14
2023-04-29,4526.17
2023-04-30,4526.18
2023-05-01,4526.2
2023-05-02,4526.2
2023-05-03,4526.27
2023-05-04,4526.27
2023-05-05,4526.27
2023-05-06,4526.35
2023-05-07,4526.34
2023-05-08,4526.37
2023-05-09,4526.41
2023-05-10,4526.38
2023-05-11,4526.43
2023-05-12,4526.45
2023-05-13,4526.44
2023-05-14,4526.42
2023-05-15,4526.43
2023-05-16,4526.43
2023-05-17,4526.41
2023-05-18,4526.38
2023-05-19,4526.39
2023-05-20,4526.33
2023-05-21,4526.33
2023-05-22,4526.32
2023-05-23,4526.27
2023-05-24,4526.29
2023-05-25,4526.26
2023-05-26,4526.24
2023-05-27,4526.24
2023-05-28,
2023-05-29,
2023-05-30,
2023-05-31,
2023-06-01,4526.26
2023-06-02,4526.25
2023-06-03,4526.22
2023-06-04,4526.21
2023-06-05,4526.2
2023-06-06,4526.19
2023-06-07,4526.17
2023-06-08,4526.15
2023-06-09,4526.14
2023-06-10,4526.13
2023-06-11,4526.13
2023-06-12,4526.1
2023-06-13,4526.03
2023-06-14,4526.0
2023-06-15,4526.03
2023-06-16,4525.96
2023-06-17,4525.88
2023-06-18,4525.88
2023-06-19,4525.87
2023-06-20,4525.87
2023-06-21,4525.84
2023-06-22,4525.75
2023-06-23,4525.76
2023-06-24,4525.79
2023-06-25,4525.75
2023-06-26,4525.72
2023-06-27,
2023-06-28,4525.66
2023-06-29,4525.66
2023-06-30,4525.62
2023-07-01,4525.6
2023-07-02,4525.56
2023-07-03,4525.54
2023-07-04,4525.52
2023-07-05,4525.47
2023-07-06,4525.42
2023-07-07,4525.42
2023-07-08,4525.32
2023-07-09,4525.29
2023-07-10,4525.29
2023-07-11,4525.26
2023-07-12,4525.23
2023-07-13,4525.2
2023-07-14,4525.19
2023-07-15,4525.13
2023-07-16,4525.1
2023-07-17,4525.07
2023-07-18,4525.02
2023-07-19,4524.96
2023-07-20,4524.96
2023-07-21,4524.92
2023-07-22,4524.87
2023-07-23,4524.85
2023-07-24,4524.81
2023-07-25,4524.77
2023-07-26,4524.73
2023-07-27,4524.69
2023-07-28,4524.65
2023-07-29,4524.6
2023-07-30,4524.55
2023-07-31,4524.51
2023-08-01,4524.49
2023-08-02,4524.4
2023-08-03,4524.37
2023-08-04,4524.37
2023-08-05,4524.32
2023-08-06,4524.28
2023-08-07,4524.24
2023-08-08,4524.19
2023-08-09,4524.16
2023-08-10,4524.11
2023-08-11,4524.08
2023-08-12,4524.06
2023-08-13,4524.04
2023-08-14,4524.01
2023-08-15,4523.93
2023-08-16,4523.94
2023-08-17,4523.94
2023-08-18,4523.89
2023-08-19,4523.87
2023-08-20,4523.88
2023-08-21,4523.84
2023-08-22,4523.81
2023-08-23,4523.81
2023-08-24,4523.78
2023-08-25,4523.75
2023-08-26,4523.72
2023-08-27,4523.69
2023-08-28,4523.65
2023-08-29,4523.6
2023-08-30,4523.6
2023-08-31,4523.55
2023-09-01,4523.58
2023-09-02,4523.55
2023-09-03,4523.49
2023-09-04,4523.5
2023-09-05,4523.48
2023-09-06,4523.44
2023-09-07,4523.4
2023-09-08,4523.39
2023-09-09,4523.38
2023-09-10,4523.35
2023-09-11,4523.31
2023-09-12,4523.27
2023-09-13,4523.29
2023-09-14,4523.26
2023-09-15,4523.24
2023-09-16,4523.22
2023-09-17,4523.19
2023-09-18,4523.15
2023-09-19,4523.1
2023-09-20,4523.07
2023-09-21,4523.11
2023-09-22,4523.04
2023-09-23,4522.99
2023-09-24,4522.99
2023-09-25,4522.93
2023-09-26,4522.97
2023-09-27,4522.93
2023-09-28,4522.96
2023-09-29,4522.94
2023-09-30,4522.96
2023-10-01,4522.94
2023-10-02,4522.88
2023-10-03,4522.93
2023-10-04,4522.93
2023-10-05,4522.91
2023-10-06,4522.91
2023-10-07,4522.89
2023-10-08,4522.86
2023-10-09,4522.82
2023-10-10,4522.76
2023-10-11,4522.86
2023-10-12,4522.88
2023-10-13,4522.87
2023-10-14,4522.85
2023-10-15,4522.84
2023-10-16,4522.84
2023-10-17,4522.84
2023-10-18,4522.84
2023-10-19,4522.84
2023-10-20,4522.84
2023-10-21,4522.82
2023-10-22,4522.76
2023-10-23,4522.76
2023-10-24,4522.79
2023-10-25,4522.72
2023-10-26,4522.81
2023-10-27,4522.78
2023-10-28,4522.78
2023-10-29,4522.77
2023-10-30,4522.77
2023-10-31,4522.77
2023-11-01,4522.77
2023-11-02,4522.76
2023-11-03,4522.76
2023-11-04,4522.7
2023-11-05,4522.74
2023-11-06,4522.78
2023-11-07,4522.76
2023-11-08,4522.78
2023-11-09,4522.78
2023-11-10,4522.78
2023-11-11,4522.78
2023-11-12,4522.72
2023-11-13,4522.77
2023-11-14,4522.77
2023-11-15,4522.78
2023-11-16,4522.77
2023-11-17,4522.76
2023-11-18,4522.77
2023-11-19,4522.81
2023-11-20,4522.82
2023-11-21,
2023-11-22,
2023-11-23,
2023-11-24,
2023-11-25,
2023-11-26,
2023-11-27,
2023-11-28,4522.8
2023-11-29,4522.79
2023-11-30,4522.78
2023-12-01,4522.77
2023-12-02,4522.8
2023-12-03,4522.8
2023-12-04,4522.86
2023-12-05,4522.85
2023-12-06,4522.78
2023-12-07,4522.82
2023-12-08,4522.87
2023-12-09,4522.86
2023-12-10,4522.86
2023-12-11,4522.86
2023-12-12,4522.86
2023-12-13,4522.85
2023-12-14,4522.87
2023-12-15,4522.85
2023-12-16,4522.86
2023-12-17,4522.85
2023-12-18,4522.91
2023-12-19,4522.94
2023-12-20,4522.93
2023-12-21,4522.93
2023-12-22,4522.92
2023-12-23,4522.94
2023-12-24,4522.92
2023-12-25,4522.92
2023-12-26,4522.93
2023-12-27,4522.91
2023-12-28,4522.94
2023-12-29,4522.93
2023-12-30,4522.96
2023-12-31,4522.96
2024-01-01,4522.95
2024-01-02,
2024-01-03,4522.95
2024-01-04,4522.98
2024-01-05,4522.96
2024-01-06,4522.92
2024-01-07,4522.97
2024-01-08,4522.96
2024-01-09,4522.94
2024-01-10,4522.98
2024-01-11,4523.02
2024-01-12,4523.01
2024-01-13,4523.04
2024-01-14,4523.06
2024-01-15,4523.06
2024-01-16,4523.08
2024-01-17,4523.08
2024-01-18,4523.09
2024-01-19,4523.1
2024-01-20,4523.11
2024-01-21,4523.15
2024-01-22,4523.22
2024-01-23,4523.32
2024-01-24,4523.34
2024-01-25,4523.4
2024-01-26,4523.43
2024-01-27,4523.49
2024-01-28,4523.53
2024-01-29,4523.57
2024-01-30,4523.6
2024-01-31,4523.61
2024-02-01,4523.61
2024-02-02,4523.7
2024-02-03,4523.76
2024-02-04,4523.89
2024-02-05,4523.82
2024-02-06,4523.82
2024-02-07,
2024-02-08,
2024-02-09,
2024-02-10,
2024-02-11,
2024-02-12,
2024-02-13,
2024-02-14,
2024-02-15,
2024-02-16,
2024-02-17,
2024-02-18,
2024-02-19,
2024-02-20,
2024-02-21,
2024-02-22,
2024-02-23,
2024-02-24,4524.29
2024-02-25,4524.29
2024-02-26,4524.25
2024-02-27,4524.35
2024-02-28,4524.21
2024-02-29,4524.33
2024-03-01,4524.35
2024-03-02,4524.49
2024-03-03,4524.49
2024-03-04,4524.42
2024-03-05,4524.58
2024-03-06,4524.62
2024-03-07,4524.7
2024-03-08,4524.79
2024-03-09,4524.83
2024-03-10,4524.92
2024-03-11,4524.92
2024-03-12,4525.1
2024-03-13,4525.21
2024-03-14,4525.28
2024-03-15,4525.34
2024-03-16,4525.41
2024-03-17,4525.47
2024-03-18,4525.56
2024-03-19,4525.62
2024-03-20,4525.61
2024-03-21,4525.72
2024-03-22,4525.8
2024-03-23,4525.88
2024-03-24,4525.92
2024-03-25,4525.94
2024-03-26,4525.99
2024-03-27,4526.02
2024-03-28,4526.09
2024-03-29,4526.15
2024-03-30,4526.18
2024-03-31,4526.2
2024-04-01,4526.23
2024-04-02,4526.25
2024-04-03,4526.25
2024-04-04,4526.29
2024-04-05,4526.36
2024-04-06,4526.39
2024-04-07,4526.43
2024-04-08,4526.43
2024-04-09,4526.48
2024-04-10,4526.52
2024-04-11,4526.54
2024-04-12,4526.55
2024-04-13,4526.49
2024-04-14,4526.67
2024-04-15,4526.65
2024-04-16,4526.67
2024-04-17,4526.72
2024-04-18,4526.73
2024-04-19,4526.73
2024-04-20,4526.74
2024-04-21,4526.74
2024-04-22,4526.73
2024-04-23,4526.74
2024-04-24,4526.71
2024-04-25,4526.75
2024-04-26,4526.74
2024-04-27,4526.78
2024-04-28,4526.74
2024-04-29,4526.75
2024-04-30,4526.73
2024-05-01,4526.73
2024-05-02,4526.74
2024-05-03,4526.72
2024-05-04,4526.67
2024-05-05,4526.75
2024-05-06,4526.77
2024-05-07,4526.8
2024-05-08,4526.77
2024-05-09,4526.78
2024-05-10,4526.79
2024-05-11,4526.79
2024-05-12,4526.77
2024-05-13,4526.77
2024-05-14,4526.78
2024-05-15,4526.77
2024-05-16,4526.72
2024-05-17,4526.71
2024-05-18,4526.65
2024-05-19,4526.66
2024-05-20,4526.64
2024-05-21,4526.55
2024-05-22,4526.56
2024-05-23,4526.55
2024-05-24,4526.48
2024-05-25,4526.46
2024-05-26,4526.44
2024-05-27,4526.41
2024-05-28,4526.4
2024-05-29,4526.35
2024-05-30,4526.34
2024-05-31,4526.29
2024-06-01,4526.26
2024-06-02,4526.23
2024-06-03,4526.2
2024-06-04,4526.18
2024-06-05,4526.17
2024-06-06,4526.08
2024-06-07,4526.07
2024-06-08,4526.08
2024-06-09,4526.0
2024-06-10,4525.98
2024-06-11,4525.96
2024-06-12,4525.94
2024-06-13,4525.87
2024-06-14,4525.84
